Temp
6 7 7 6 6 7 7 8 7 8 8 9 8 8 9 9 10 10 10 10 9 9 9 8 7 7 6 6 6 6 6 7 6 6 6 6 6 6 5 5 5 5 5 5 5 5 5 5 5
6 7 7 6 7 7 7 7 7 7 8 8 8 8 9 10 9 10 10 11 9 9 8 8 7 6 5 5 5 6 6 6 6 6 6 6 6 5 5 5 5 5 5 5 5 5 5 5 4
7 6 6 6 6 6 7 7 7 7 8 8 8 8 9 9 10 10 9 9 9 8 8 7 6 5 5 5 5 5 5 6 6 6 6 5 5 5 5 5 5 5 5 5 5 5 4 4 4
7 6 6 6 6 7 7 7 7 6 7 7 7 8 8 9 9 9 8 8 9 7 7 6 5 5 4 4 4 4 5 5 6 6 5 5 5 5 5 5 5 5 5 5 5 4 4 3 3
7 6 5 5 6 7 7 6 7 7 7 7 7 8 8 9 9 8 7 7 7 7 6 6 5 5 4 4 4 4 5 4 5 5 5 5 4 5 5 5 5 5 5 5 5 4 4 4 4
6 5 5 6 6 7 7 7 7 7 7 7 8 8 8 8 8 8 7 6 6 6 5 5 5 4 3 3 1 1 4 3 3 4 4 4 4 5 5 5 5 5 5 5 4 4 4 4 3
6 5 5 5 7 7 7 7 7 7 7 7 8 8 8 8 8 7 5 4 5 5 4 5 4 4 3 2 0 1 1 3 4 4 4 4 4 4 5 5 5 4 4 4 4 4 3 3 3
5 4 5 6 7 7 7 7 7 7 7 7 7 7 7 7 7 6 4 5 5 5 5 4 4 4 3 1 0 1 2 3 4 4 4 4 4 4 4 4 4 4 4 3 3 3 3 3 2
5 5 6 6 6 6 6 7 7 7 7 6 6 6 6 6 6 6 4 5 3 4 4 4 4 2 1 -0 1 2 3 3 4 4 3 4 4 4 4 4 4 4 3 3 3 2 2 2 2
5 5 6 6 6 7 6 6 6 6 6 5 5 5 5 5 5 5 5 4 3 4 4 4 2 1 0 1 2 2 2 3 3 3 3 3 4 4 4 4 3 3 3 2 2 2 1 2 2
6 6 6 7 6 7 6 6 6 6 5 5 5 5 4 4 4 4 4 3 4 4 3 3 1 1 -0 1 1 3 3 3 3 3 3 3 3 3 3 3 3 2 2 2 1 1 1 2 1
6 7 7 7 7 6 6 6 5 5 5 5 5 4 4 4 4 3 3 3 3 3 1 1 0 1 1 2 2 3 3 3 3 3 3 3 3 3 3 2 2 2 2 1 1 1 1 1 1
7 7 7 7 6 6 6 5 5 5 5 4 4 4 3 3 3 3 2 2 2 3 1 0 1 1 2 2 3 3 3 3 3 3 3 3 2 2 2 2 2 2 1 1 1 0 0 -0 -0
7 7 6 6 6 6 5 5 5 5 5 3 3 3 3 3 3 2 3 2 2 3 3 2 2 2 3 3 3 3 3 3 3 3 3 2 2 2 2 1 1 1 0 -0 -0 -1 -1 -1 -1
6 6 6 6 6 5 5 5 5 5 6 4 4 3 1 2 2 2 3 3 3 2 3 3 3 3 3 3 3 3 3 3 3 2 3 2 2 2 1 0 0 -1 -1 -1 -1 -1 -1 -1 -1
5 6 6 6 5 5 5 6 5 5 5 4 5 3 2 2 2 2 3 3 2 3 3 3 3 3 3 3 3 3 3 3 2 2 2 2 2 1 1 -0 -1 -1 -2 -2 -2 -2 -2 -2 -1
5 5 6 6 6 5 6 6 5 5 5 5 4 4 4 2 2 2 2 3 3 4 3 3 3 3 3 3 3 2 3 2 2 2 2 2 2 1 0 -0 0 -0 -2 -2 -2 -2 -2 -2 -1
5 5 5 6 6 6 6 6 6 5 5 5 4 4 4 4 3 2 3 4 4 4 3 3 3 3 3 3 3 2 2 2 2 2 2 2 1 1 0 0 -0 -1 -2 -2 -2 -2 -1 -1 -1
6 6 6 6 6 7 7 6 6 5 5 5 5 5 5 5 4 4 3 3 4 4 4 4 3 3 3 3 2 2 2 2 3 3 2 1 1 0 0 -0 -1 -1 -2 -2 -1 -1 -1 -1 -1
5 6 6 7 6 6 7 7 6 6 6 6 6 6 5 6 6 6 5 5 5 4 4 4 4 3 3 2 2 2 2 2 2 2 1 1 0 -0 -0 -1 -1 -1 -1 -1 -2 -2 -2 -2 -1
5 6 6 6 6 6 6 7 7 7 6 6 6 6 5 6 6 6 6 6 5 5 5 4 4 3 3 2 2 2 2 2 2 1 1 0 0 -0 -1 -1 -1 -1 -2 -2 -1 -2 -1 -3 -2
6 6 6 6 6 6 6 6 7 7 7 6 6 6 6 6 6 6 6 6 5 5 5 4 4 3 3 3 3 2 2 2 1 1 1 0 -0 -0 -1 -1 -1 -2 -2 -2 -2 -2 -2 -2 -3
6 6 6 6 6 6 6 6 8 8 8 8 7 7 6 6 6 6 6 5 5 5 4 4 3 3 3 3 2 2 2 1 1 1 0 -0 -0 -1 -1 -2 -2 -3 -2 -3 -3 -3 -3 -3 -3
6 6 6 6 6 5 6 6 7 8 8 8 8 7 7 6 6 6 6 5 5 5 4 4 4 3 2 2 2 2 1 1 1 0 -0 -0 -1 -1 -2 -2 -2 -3 -4 -4 -4 -4 -4 -4 -4
6 6 5 3 3 3 6 5 7 8 7 8 7 8 7 7 6 6 6 6 5 5 4 4 3 3 2 2 2 2 1 1 1 0 -0 -1 -1 -2 -3 -2 -3 -3 -3 -5 -4 -4 -4 -5 -5
6 6 6 5 2 3 6 6 8 8 8 8 8 8 8 7 7 7 6 5 5 4 4 3 3 2 2 2 2 2 2 1 -0 -0 -0 -1 -1 -2 -2 -2 -3 -3 -5 -5 -4 -5 -6 -6 -7
6 6 6 6 3 2 6 7 7 8 7 8 8 8 8 8 7 6 6 5 5 4 3 3 2 2 3 3 2 2 1 0 -0 -0 1 -1 -2 -2 -2 -2 -3 -4 -5 -5 -5 -6 -7 -7 -7
6 6 6 5 4 3 4 5 7 7 8 8 7 7 7 7 7 6 6 5 4 4 3 3 2 2 2 2 2 1 1 0 0 -1 -1 -1 -3 -2 -2 -3 -3 -4 -5 -6 -5 -7 -7 -7 -7
6 6 6 5 5 2 0 5 7 7 7 7 7 7 7 7 6 6 5 5 4 3 3 3 3 2 2 1 1 1 1 1 -0 -2 -2 -3 -2 -2 -3 -4 -3 -5 -5 -6 -6 -7 -7 -7 -7
6 6 6 6 4 4 4 4 7 7 7 7 7 7 7 7 7 6 5 5 4 3 3 3 3 2 2 1 1 1 0 -0 -1 -1 -2 -2 -2 -3 -4 -4 -5 -5 -5 -6 -7 -8 -8 -7 -8
Height
3129 3129 3129 3130 3136 3133 3132 3132 3131 3132 3129 3129 3131 3137 3136 3136 3138 3140 3137 3137 3138 3142 3142 3144 3147 3150 3153 3156 3159 3162 3164 3166 3166 3166 3167 3169 3170 3171 3172 3172 3172 3174 3173 3174 3175 3175 3175 3176 3175
3128 3127 3128 3129 3131 3130 3130 3129 3129 3128 3128 3128 3129 3133 3135 3133 3137 3136 3136 3136 3138 3140 3142 3143 3146 3149 3152 3157 3160 3162 3164 3167 3166 3167 3168 3169 3170 3171 3172 3173 3174 3175 3175 3175 3177 3176 3175 3176 3176
3127 3127 3128 3127 3126 3128 3130 3128 3125 3124 3124 3127 3128 3130 3131 3131 3132 3134 3135 3136 3136 3138 3140 3143 3145 3148 3151 3155 3159 3162 3164 3165 3166 3167 3167 3169 3171 3172 3173 3174 3174 3175 3175 3175 3175 3176 3176 3176 3175
3126 3126 3126 3125 3125 3128 3128 3127 3121 3121 3124 3124 3126 3128 3129 3129 3130 3132 3133 3135 3136 3137 3140 3143 3145 3147 3150 3154 3157 3159 3164 3164 3166 3167 3167 3169 3171 3173 3173 3174 3173 3175 3175 3174 3175 3176 3177 3177 3176
3125 3124 3124 3125 3125 3126 3126 3125 3123 3122 3123 3124 3125 3126 3126 3127 3128 3130 3130 3132 3136 3137 3139 3141 3144 3146 3149 3153 3156 3159 3161 3160 3165 3166 3167 3169 3171 3173 3174 3174 3175 3176 3176 3175 3175 3176 3176 3176 3176
3124 3124 3125 3125 3125 3126 3125 3123 3123 3123 3123 3124 3124 3124 3125 3125 3126 3127 3128 3130 3133 3134 3136 3138 3142 3143 3142 3148 3148 3156 3160 3162 3163 3166 3168 3169 3171 3173 3173 3174 3176 3176 3175 3175 3175 3175 3175 3176 3174
3123 3124 3125 3125 3125 3125 3124 3124 3123 3124 3123 3123 3122 3122 3123 3122 3122 3124 3125 3128 3130 3133 3133 3135 3135 3137 3137 3139 3147 3155 3159 3163 3164 3166 3167 3169 3170 3172 3173 3174 3176 3177 3177 3176 3175 3176 3176 3174 3173
3123 3124 3125 3125 3125 3125 3124 3123 3123 3122 3122 3120 3119 3119 3121 3120 3121 3122 3124 3127 3130 3130 3130 3129 3126 3127 3127 3136 3145 3153 3160 3163 3163 3165 3166 3167 3169 3171 3173 3175 3177 3177 3178 3178 3178 3175 3175 3174 3172
3123 3125 3124 3125 3125 3125 3123 3123 3122 3121 3119 3118 3118 3118 3119 3119 3120 3121 3122 3122 3125 3128 3131 3131 3126 3130 3131 3137 3143 3151 3159 3161 3162 3164 3165 3168 3171 3172 3174 3175 3176 3177 3178 3178 3175 3175 3174 3173 3171
3124 3124 3124 3124 3124 3123 3122 3122 3121 3119 3116 3117 3116 3116 3116 3117 3117 3118 3119 3120 3120 3123 3125 3123 3116 3128 3130 3141 3148 3154 3157 3159 3161 3164 3166 3168 3170 3172 3173 3174 3175 3176 3176 3176 3174 3174 3173 3171 3169
3123 3123 3122 3123 3122 3123 3122 3121 3119 3117 3115 3114 3113 3114 3114 3114 3116 3116 3117 3116 3119 3121 3121 3119 3127 3129 3134 3145 3150 3153 3155 3158 3161 3163 3166 3169 3170 3171 3172 3172 3173 3174 3173 3173 3172 3172 3172 3170 3167
3122 3121 3120 3120 3120 3121 3120 3119 3117 3116 3115 3113 3112 3112 3111 3113 3113 3114 3114 3102 3112 3116 3118 3119 3125 3130 3138 3144 3149 3152 3156 3159 3162 3164 3166 3168 3169 3170 3170 3171 3170 3171 3171 3170 3169 3170 3167 3166 3164
3120 3119 3119 3119 3120 3119 3119 3118 3117 3115 3112 3109 3109 3110 3110 3111 3111 3112 3115 3116 3114 3118 3116 3123 3128 3135 3140 3144 3148 3151 3154 3158 3161 3163 3165 3166 3168 3168 3168 3169 3168 3168 3168 3167 3165 3165 3163 3162 3159
3119 3119 3119 3120 3119 3119 3118 3118 3116 3115 3110 3106 3106 3108 3109 3111 3111 3112 3115 3114 3119 3122 3125 3128 3134 3135 3138 3145 3148 3152 3155 3157 3160 3162 3164 3165 3166 3167 3167 3166 3165 3165 3164 3163 3162 3160 3159 3157 3155
3120 3120 3121 3120 3119 3119 3118 3118 3116 3115 3114 3111 3109 3108 3109 3109 3110 3115 3116 3119 3122 3125 3129 3131 3132 3138 3140 3145 3149 3151 3154 3158 3159 3161 3162 3163 3164 3164 3164 3162 3160 3161 3160 3160 3159 3157 3156 3155 3152
3121 3121 3121 3120 3120 3119 3120 3119 3117 3117 3117 3115 3112 3111 3112 3114 3116 3119 3123 3125 3126 3130 3132 3134 3137 3139 3142 3146 3148 3151 3154 3157 3159 3159 3160 3160 3161 3161 3161 3158 3157 3158 3157 3156 3156 3154 3152 3150 3148
3120 3120 3120 3120 3119 3120 3120 3119 3118 3118 3118 3118 3116 3114 3115 3115 3117 3120 3124 3127 3129 3131 3133 3135 3137 3140 3143 3147 3149 3151 3153 3155 3156 3157 3157 3158 3158 3158 3156 3155 3153 3153 3154 3152 3151 3150 3149 3147 3145
3120 3120 3120 3119 3120 3119 3118 3120 3119 3119 3119 3119 3119 3118 3118 3120 3120 3122 3125 3127 3129 3132 3134 3137 3139 3141 3144 3147 3148 3150 3151 3154 3154 3155 3155 3155 3155 3154 3153 3152 3151 3150 3150 3149 3147 3146 3144 3142 3139
3118 3119 3119 3118 3118 3117 3116 3117 3119 3119 3119 3119 3120 3120 3120 3122 3124 3125 3126 3128 3129 3132 3134 3137 3139 3141 3143 3145 3148 3149 3150 3151 3152 3153 3152 3152 3151 3150 3150 3149 3147 3147 3147 3145 3143 3141 3138 3135 3132
3116 3117 3116 3115 3115 3115 3114 3115 3116 3117 3118 3119 3120 3121 3122 3122 3124 3125 3128 3129 3131 3133 3136 3137 3139 3141 3142 3143 3145 3146 3148 3148 3148 3148 3148 3149 3148 3147 3147 3145 3144 3144 3142 3140 3138 3135 3132 3130 3127
3115 3115 3114 3115 3114 3112 3112 3113 3113 3114 3116 3117 3117 3120 3121 3122 3125 3126 3127 3130 3133 3135 3136 3137 3138 3139 3140 3140 3142 3144 3145 3145 3145 3145 3145 3145 3144 3143 3143 3142 3141 3139 3138 3135 3132 3129 3125 3122 3119
3112 3112 3112 3112 3112 3111 3112 3112 3111 3111 3111 3113 3114 3115 3118 3120 3122 3124 3126 3127 3130 3132 3133 3134 3135 3136 3136 3137 3139 3141 3141 3141 3141 3141 3142 3141 3140 3140 3140 3139 3137 3134 3131 3129 3126 3122 3120 3116 3113
3111 3111 3110 3110 3110 3111 3111 3112 3109 3108 3107 3108 3109 3110 3113 3116 3119 3121 3124 3127 3127 3128 3128 3130 3130 3130 3132 3133 3135 3136 3137 3137 3137 3138 3138 3138 3137 3137 3135 3134 3131 3128 3125 3123 3119 3115 3111 3107 3104
3110 3109 3109 3109 3108 3109 3109 3110 3106 3104 3104 3104 3106 3106 3108 3111 3114 3117 3119 3121 3123 3124 3124 3125 3126 3126 3128 3128 3131 3132 3133 3134 3134 3134 3134 3133 3133 3132 3130 3127 3124 3122 3119 3115 3112 3108 3104 3100 3095
3108 3108 3109 3111 3110 3108 3106 3107 3103 3102 3101 3100 3101 3101 3103 3107 3109 3112 3114 3117 3119 3120 3120 3121 3122 3123 3125 3125 3126 3128 3129 3129 3129 3129 3129 3129 3127 3126 3123 3120 3116 3113 3111 3108 3104 3101 3096 3091 3086
3106 3106 3108 3110 3111 3107 3105 3102 3100 3100 3099 3099 3097 3097 3098 3100 3104 3107 3109 3112 3114 3116 3117 3117 3118 3120 3120 3121 3122 3123 3124 3124 3124 3124 3124 3123 3121 3118 3116 3112 3109 3107 3103 3099 3096 3092 3086 3082 3078
3102 3103 3105 3105 3107 3108 3102 3099 3098 3098 3096 3095 3094 3095 3097 3098 3101 3104 3107 3109 3111 3112 3115 3114 3115 3116 3116 3116 3116 3118 3120 3119 3119 3118 3117 3115 3114 3110 3107 3105 3105 3100 3096 3092 3088 3082 3077 3073 3069
3100 3102 3102 3102 3105 3106 3100 3099 3097 3096 3094 3092 3093 3093 3095 3097 3098 3100 3102 3105 3107 3109 3110 3110 3111 3112 3111 3111 3113 3114 3114 3115 3114 3112 3111 3109 3105 3101 3097 3100 3095 3091 3087 3083 3078 3073 3068 3065 3061
3098 3098 3099 3100 3100 3101 3104 3098 3097 3096 3095 3093 3092 3092 3092 3093 3095 3097 3098 3101 3103 3104 3106 3107 3107 3106 3106 3107 3108 3108 3109 3108 3107 3107 3105 3101 3097 3095 3095 3092 3088 3083 3078 3073 3069 3064 3060 3058 3054
3093 3095 3096 3096 3097 3096 3096 3094 3094 3094 3094 3094 3093 3093 3092 3092 3092 3092 3093 3095 3096 3098 3102 3103 3102 3101 3101 3101 3102 3102 3100 3101 3100 3096 3094 3091 3094 3090 3088 3084 3079 3075 3069 3065 3061 3057 3054 3051 3046
Wind_Speed
13 11 11 9 6 4 8 4 4 8 13 10 15 8 8 11 14 8 6 8 13 18 24 27 28 28 27 26 24 22 17 12 9 5 5 7 8 10 10 9 7 6 6 7 9 11 12 13 13
11 11 8 6 6 7 8 4 4 3 5 9 6 15 15 13 15 16 14 10 17 20 25 29 31 30 28 26 25 20 14 12 6 5 8 11 10 10 10 8 6 4 5 5 7 9 11 12 12
12 8 5 5 9 6 7 10 19 14 8 5 12 15 15 11 10 16 15 13 18 24 27 31 32 31 29 27 25 20 13 13 7 7 11 12 12 12 11 8 5 2 2 4 7 8 10 12 13
9 6 7 9 5 5 6 11 14 7 5 6 10 7 11 12 11 11 12 14 17 25 29 30 31 32 30 29 26 16 20 12 5 10 13 14 14 13 12 8 5 2 2 4 6 8 9 11 12
8 6 9 4 3 3 10 7 9 4 3 3 3 6 10 11 10 9 10 16 18 22 27 30 33 32 31 30 25 20 20 18 10 13 14 15 14 13 10 7 4 1 3 5 8 9 12 13 14
8 5 3 4 2 7 9 6 4 1 2 5 11 11 14 15 13 10 13 20 23 20 29 33 33 34 36 32 26 23 21 18 9 15 15 15 13 12 11 8 4 1 5 8 9 12 13 12 14
8 4 6 6 3 7 7 6 4 4 6 10 13 13 14 14 11 9 11 13 18 23 30 34 39 40 40 35 27 24 17 10 15 16 16 15 15 13 10 6 3 2 3 8 12 9 10 11 16
7 4 6 4 7 6 7 4 6 9 9 10 11 8 7 5 8 9 10 16 21 26 31 38 44 39 39 38 30 23 13 14 16 17 16 16 14 11 9 6 4 3 6 7 7 8 11 12 13
4 4 4 5 5 8 12 6 10 12 12 12 13 13 10 13 12 12 16 16 17 16 19 24 24 34 29 33 32 20 14 14 15 17 14 13 12 10 9 6 4 6 7 7 6 10 10 11 14
4 6 7 6 10 14 9 11 10 13 13 14 15 17 20 17 11 9 10 11 12 17 22 35 37 32 24 24 19 15 16 16 16 15 13 11 10 10 8 6 7 9 10 8 8 7 12 14 17
6 7 6 11 12 6 7 9 9 7 11 13 14 15 10 9 10 9 11 14 20 22 21 29 29 29 28 20 17 12 9 11 11 10 10 10 11 9 8 9 11 11 11 12 11 12 14 16 18
7 5 9 3 5 3 4 7 6 6 8 9 9 8 9 9 10 8 8 17 22 25 25 25 25 38 37 30 19 14 11 8 7 7 9 8 9 10 10 11 12 15 15 15 15 16 17 17 20
3 7 5 3 0 3 4 4 7 7 9 11 13 12 8 9 8 10 10 13 7 8 11 25 32 27 24 17 12 8 7 5 5 6 8 8 9 9 10 12 14 15 17 18 19 17 20 22 22
6 6 4 2 0 4 1 4 7 11 14 6 7 8 11 5 9 4 11 16 31 31 30 29 23 20 18 13 9 8 9 7 6 7 6 6 6 9 11 13 15 16 17 19 19 21 21 23 22
5 3 2 2 1 3 2 3 4 5 14 21 24 21 25 14 9 10 24 34 23 18 15 18 19 15 15 14 14 15 11 9 7 7 7 7 8 9 10 12 13 17 19 20 20 20 21 21 24
4 2 3 2 3 2 3 4 4 3 5 12 20 13 12 18 12 21 20 23 24 20 20 21 21 19 17 15 14 12 9 7 6 6 6 6 8 10 14 14 16 18 15 15 16 18 21 24 26
3 2 3 2 4 5 7 4 5 3 3 5 13 14 17 22 23 21 13 15 18 20 23 21 19 16 15 13 12 10 5 4 4 5 6 8 9 12 16 15 16 16 14 16 17 20 24 27 29
8 5 4 5 3 9 10 7 5 5 3 2 2 9 11 14 21 21 16 15 15 14 17 18 18 16 14 11 8 5 3 4 6 8 9 9 10 13 15 15 15 15 16 17 20 24 29 32 33
7 8 12 5 7 13 12 9 10 9 7 7 4 8 12 12 13 16 16 16 17 19 19 18 15 14 10 7 6 5 6 6 8 10 10 10 11 14 15 15 16 17 21 24 27 30 32 33 33
15 15 14 6 2 11 10 6 10 15 13 6 4 4 11 14 14 14 15 16 16 16 17 16 14 11 9 8 9 9 9 8 8 9 10 9 13 15 15 17 19 22 24 24 26 29 30 30 35
7 12 15 15 12 12 7 9 15 19 18 15 12 10 8 9 11 13 13 13 13 12 11 10 10 9 9 9 12 11 11 10 8 8 9 12 15 16 18 19 22 26 27 24 28 31 33 31 37
14 6 8 8 7 4 8 4 11 17 21 21 17 16 12 11 12 11 10 9 5 7 12 12 12 12 12 12 13 13 13 13 9 10 13 15 16 17 20 21 21 23 28 29 40 32 37 38 37
8 8 11 5 6 5 7 4 9 12 19 21 22 20 17 16 14 13 10 9 9 8 9 11 13 13 15 14 14 15 16 14 12 14 15 15 17 21 22 26 27 26 25 34 39 40 47 41 41
8 7 7 7 6 2 5 8 7 10 11 14 15 22 23 21 19 15 13 13 11 11 11 11 12 12 15 18 17 17 17 16 15 15 15 17 20 23 28 26 33 26 30 34 39 45 42 41 45
6 2 3 2 1 4 3 5 9 11 11 11 13 16 19 21 23 21 17 13 11 12 14 11 9 11 15 19 20 20 18 16 16 17 18 21 24 25 30 28 31 33 36 39 40 42 45 43 43
3 3 2 2 2 4 6 5 6 10 14 13 14 7 11 15 19 20 20 16 13 17 9 14 10 14 17 17 17 17 18 20 20 21 23 24 25 29 39 37 35 36 41 40 49 44 41 43 44
4 5 4 3 2 2 6 11 14 9 13 14 7 6 9 9 8 12 14 13 15 16 13 15 17 21 20 17 16 18 22 20 22 27 26 28 29 33 34 40 36 42 40 46 44 40 41 42 40
8 6 3 2 2 3 5 7 6 13 15 13 5 6 6 6 8 10 12 14 14 16 17 17 21 24 18 17 18 22 22 24 24 22 24 27 34 42 38 41 34 45 42 45 47 41 38 35 35
14 17 13 8 5 4 1 6 6 8 10 5 9 6 4 4 5 6 7 10 13 16 16 20 19 15 14 15 18 18 17 18 26 19 27 24 27 31 38 38 45 46 41 47 47 41 34 33 36
19 16 18 15 6 8 6 15 15 9 13 14 13 13 8 6 8 6 7 10 11 15 18 15 9 8 8 12 16 18 19 25 23 33 30 31 35 29 44 38 41 42 46 45 41 34 34 36 40
Wind_Direction
281 282 272 258 237 261 271 258 189 230 282 257 241 285 291 257 277 257 296 231 200 203 205 197 196 197 197 199 197 192 190 210 191 177 156 130 126 125 130 133 129 113 86 61 50 48 39 34 31
284 284 269 249 229 252 274 295 345 326 357 240 209 234 264 265 232 265 241 227 202 206 203 198 196 196 197 199 196 194 183 210 174 175 150 137 134 134 134 132 124 101 67 52 45 38 36 28 27
283 278 256 225 228 252 292 316 310 291 279 277 210 206 216 220 222 248 250 232 202 198 200 201 195 195 198 199 196 185 195 197 168 168 149 143 143 142 137 131 129 114 76 35 33 33 31 30 29
283 259 228 236 246 290 316 341 344 187 266 258 236 225 230 246 253 258 209 222 221 192 196 198 197 196 197 197 191 187 198 172 161 161 150 147 147 144 141 142 152 187 29 17 8 17 18 22 17
285 243 231 264 194 298 326 354 20 59 309 277 312 282 281 275 270 234 207 211 208 191 197 202 200 200 197 193 183 176 181 148 186 162 156 154 153 151 152 158 171 266 340 0 353 353 2 355 357
279 240 288 275 279 310 342 16 10 336 284 292 301 294 293 294 282 257 218 215 202 210 201 203 201 200 192 184 168 177 163 149 145 161 159 157 159 169 170 173 164 272 335 341 347 352 342 345 354
251 245 283 298 310 334 33 13 349 310 282 284 277 275 285 281 258 233 226 222 213 206 206 205 203 203 189 187 163 162 138 165 168 163 163 170 180 180 183 191 209 259 333 342 332 329 328 344 349
226 253 272 304 322 352 344 354 359 350 317 294 262 263 274 283 254 227 213 213 211 209 215 214 205 187 181 169 149 132 183 185 173 171 181 182 186 190 205 211 230 302 326 318 324 319 323 332 336
235 271 279 322 331 330 333 332 332 318 296 274 251 247 263 284 272 261 224 226 224 229 228 218 190 180 172 139 124 150 184 172 179 181 182 186 199 209 225 228 267 292 292 303 306 313 312 323 322
298 278 289 319 317 318 316 316 311 300 281 252 244 271 277 272 254 245 253 224 234 230 223 208 174 182 153 123 146 160 174 172 176 183 190 200 212 226 233 258 268 276 287 295 305 305 310 316 317
335 313 285 308 305 289 303 317 313 311 283 269 267 261 258 243 240 227 234 228 204 199 196 169 177 158 124 155 157 138 130 161 173 190 204 215 219 234 248 257 266 278 288 294 292 297 305 312 321
303 276 281 305 233 270 301 313 321 323 306 284 277 299 280 235 245 224 206 236 204 173 143 161 135 124 134 151 158 148 143 156 174 198 211 219 233 243 253 265 281 287 289 296 296 301 311 316 317
249 285 206 202 338 286 297 11 12 350 304 270 258 272 252 232 183 201 199 213 232 206 161 153 120 133 132 126 126 126 124 139 171 197 212 224 239 255 267 272 282 290 300 301 301 307 316 320 319
137 122 154 140 165 312 1 19 6 19 8 293 231 219 195 187 168 177 183 166 122 117 119 124 130 125 115 114 120 123 129 141 168 191 207 227 251 261 270 276 283 292 303 308 304 312 318 317 314
114 114 151 153 307 40 2 7 29 70 31 68 66 84 125 129 139 140 137 133 141 136 129 115 113 116 119 128 138 139 138 147 171 194 212 231 250 275 296 305 307 305 304 301 306 310 309 305 311
169 180 259 237 288 262 305 331 327 292 329 45 93 106 140 129 131 137 139 151 147 139 139 135 135 135 136 140 140 142 142 164 185 204 224 258 285 302 306 314 306 299 308 302 305 308 309 309 308
156 148 258 312 244 321 321 294 296 263 335 10 83 95 113 137 162 162 167 149 140 140 133 136 136 140 148 155 155 162 171 200 236 257 275 285 297 299 312 308 312 316 309 314 303 301 301 301 300
174 173 271 300 285 284 292 271 281 253 282 301 55 103 109 121 145 157 155 152 144 146 146 152 155 158 167 178 174 186 229 261 275 278 273 279 292 304 306 305 309 308 303 297 297 299 302 301 299
281 237 303 286 306 278 283 282 252 249 239 223 190 133 123 129 146 163 174 176 164 161 165 169 170 174 176 196 214 233 262 283 282 268 271 281 293 300 298 296 301 304 299 297 296 300 306 306 306
267 262 288 299 270 306 281 266 236 249 243 239 229 175 159 160 155 157 168 169 168 172 178 182 184 189 196 214 228 243 262 280 279 289 281 278 295 290 287 290 296 298 300 300 300 300 304 304 307
264 266 303 307 310 319 281 226 239 246 246 236 223 213 213 217 185 182 177 174 187 194 198 203 204 214 224 229 246 261 268 287 280 277 264 279 281 280 282 290 297 293 291 293 298 296 294 298 309
272 280 335 317 299 310 221 240 233 253 248 244 235 226 212 205 202 204 198 193 212 221 224 225 231 239 244 252 256 264 273 280 272 262 265 275 278 284 283 289 297 303 286 295 306 305 318 306 306
267 276 306 292 289 268 228 244 262 263 246 246 243 244 233 229 227 224 217 213 209 228 236 245 243 243 251 264 259 264 279 271 267 270 270 275 285 287 290 306 286 295 315 304 310 306 312 306 309
250 278 289 273 256 234 238 227 258 262 291 280 262 255 251 244 245 245 239 238 248 249 255 242 248 256 248 265 263 265 277 254 262 264 270 281 288 281 286 295 290 292 308 309 302 309 310 310 308
224 240 336 346 3 221 278 239 277 296 294 296 287 265 262 262 255 252 257 253 260 273 263 238 251 261 258 270 270 265 249 256 261 263 268 283 277 281 290 303 279 302 300 320 303 314 313 309 307
244 214 187 242 226 278 299 246 283 305 306 304 296 255 259 248 252 251 262 258 272 268 265 264 265 285 292 268 255 245 249 259 254 263 267 277 296 295 288 291 293 281 313 316 309 307 309 310 306
236 244 241 190 270 292 253 262 286 310 316 305 290 276 291 254 226 241 252 253 265 274 245 259 280 288 285 260 243 244 255 256 269 270 287 304 300 303 295 288 302 301 314 312 303 308 309 306 307
244 267 233 230 177 265 285 277 263 322 328 309 317 316 303 281 254 253 248 243 252 257 248 268 277 282 263 243 242 250 261 270 281 292 305 302 310 289 268 308 296 311 309 312 306 310 306 306 308
275 262 248 239 205 180 244 278 316 312 325 21 13 345 319 287 284 250 235 232 236 238 252 266 280 279 270 249 251 255 264 294 313 302 301 308 312 296 289 305 307 308 307 312 310 311 304 304 303
267 261 269 243 226 218 249 272 294 273 294 310 315 290 286 302 278 250 233 227 234 241 249 262 286 297 295 283 274 277 307 294 310 304 290 266 297 298 294 304 308 307 308 306 308 302 298 296 299